Location: Bailleul
(50.3375°N, 2.8513°E)
Time: 09:13:47
(UTC+00:00)

Cosmos 1725 Rocket - Pass Details

Date: 16 June 2021
Orbit: 962 x 990 km, 82.9° (Epoch: 01 August)

Event Time Altitude Azimuth Distance (km) Brightness Sun altitude
Rises 22:13:34 0° 347° (NNW) 3,662 8.9 -13.3°
Reaches altitude 10° 22:16:06 10° 344° (NNW) 2,711 7.8 -13.4°
Maximum altitude 22:22:09 59° 267° (W) 1,109 4.4 -13.8°
Enters shadow 22:27:20 14° 192° (SSW) 2,386 5.5 -14.1°
